Location: Home
(42.5358°N, 72.7383°W)
Time: 06:09:11
(UTC-05:00)

S-56A Canister/Altair - Pass Details

Date: 05 December 2021
Orbit: 633 x 2499 km, 38.9° (Epoch: 19 January)

Event Time Altitude Azimuth Distance (km) Brightness Sun altitude
Exits shadow 03:51:51 17° 141° (SE) 1,737 9.7 -34.9°
Drops below altitude 10° 03:52:59 10° 133° (SE) 2,121 10.3 -34.7°
Sets 03:55:12 0° 126° (SE) 2,956 11.2 -34.3°
